Burns Municipal Airport
KBNO : now visible

Airfield :











YOU CAN JOIN US ON...

 
LOGIN :

Register | Disclaimer

   EN    FR    IT 

 









Legend :    VFR   Marginal VFR   IFR   Intensive IFR   Very Intensive IFR
Visi :
Ceiling :
>= 8 km
>= 3000ft
5 to 8 km
1000 to 3000 ft
1500m to 5 km
500 to 1000 ft
800 to 1500m
200 to 500 ft
< 800m
< 200 ft
Symbols :   Thunderstorms  Fog  Heavy snow  Heavy precipitations  Wind > 20 kt






- Airport Elevation : 4148 ft


KBNO - Burns Municipal

CURRENT METAR :
  • 240753Z AUTO 24006KT 10SM FEW050 09/04 A2991 RMK AO2 SLP123 T00890039 401441083

EXPIRED METARs :
  • 240653Z AUTO 26012KT 10SM FEW050 11/04 A2993 RMK AO2 SLP126 T01110044
  • 240553Z AUTO 25012KT 10SM FEW035 BKN055 12/04 A2993 RMK AO2 SLP129 T01220039 10139 20072 53002

TAF KBNO
Valid from the 24 at 06:00 until the 25 at 06:00 UTC


240520Z 2406/2506 26015G25KT P6SM VCSH BKN050
FM241500 28015G25KT P6SM SCT040
KZLC FIR / North America



MET'MAP, your aeronautical weather chart ! - Copyright ORBIFLY December 2007 - Disclaimer

ORBIFLY MET'MAP TEAM :

Programming & Development : Alexandra Zaïnal
Concept & original design : Baudouin d'Aumeries
Assistance for programming : Marc-Olivier Méhu
Technical & hardware support : Manuel Goepfert

Contact : metmap@orbifly.com




SOURCES & CREDITS :

   NOAA       Earth
Advisory